Change the Weather History Date:

Thursday, May 2, 2013

  Actual Average (KDEN) Record (KDEN)
Temperature  
Mean Temperature 34 °F 52 °F  
Max Temperature 46 °F 66 °F 90 °F (1879)
Min Temperature 23 °F 38 °F 19 °F (2013)
Degree Days  
Heating Degree Days 30 13  
Month to date heating degree days 26  
Since 1 July heating degree days 5757  
Cooling Degree Days 0 0  
Month to date cooling degree days 0  
Year to date cooling degree days 1  
Moisture  
Dew Point 26 °F    
Average Humidity 85    
Maximum Humidity 100    
Minimum Humidity 37    
Precipitation  
Precipitation 0.00 in 0.06 in 1.63 in (1979)
Month to date precipitation 0.13  
Year to date precipitation 3.54  
Snow  
Snow 0.00 in - - ()
Month to date snowfall  
Since 1 July snowfall  
Snow Depth -    
Sea Level Pressure  
Sea Level Pressure 30.57 in    
Wind  
Wind Speed 7 mph (WSW)    
Max Wind Speed 12 mph    
Max Gust Speed -    
Visibility 8 miles    
Events Snow    
T = Trace of Precipitation, MM = Missing Value Source: NWS Daily Summary

Daily Weather History Graph

Daily Weather History Graph

Search for Another Location

Airport or City:

Trip Planner

Search our weather history database for the weather conditions in past years. The results will help you decide how hot, cold, wet, or windy it might be!

Date:

Astronomy

May. 02, 2013 Rise Set
Actual Time 5:57 AM MDT 7:53 PM MDT
Civil Twilight 5:27 AM MDT 8:23 PM MDT
Nautical Twilight 4:52 AM MDT 8:59 PM MDT
Astronomical Twilight 4:13 AM MDT 9:37 PM MDT
Moon 1:45 AM MDT (5/2) 12:46 PM MDT (5/2)
Length of Visible Light 14h 55m
Length of Day
13h 56m
Waning Gibbous, 47% of the Moon is Illuminated
May 2
Waning Gibbous
May 9
New
May 17
First Quarter
May 24
Full
May 31
Last Quarter

Hourly Weather History & Observations

Time (MDT) Temp. Windchill Dew Point Humidity Pressure Visibility Wind Dir Wind Speed Gust Speed Precip Events Conditions
12:15 AM 28.4 °F 21.2 °F 26.6 °F 93% 30.60 in 5.0 mi WNW 6.9 mph - N/A Snow Light Snow
12:35 AM 28.4 °F 21.2 °F 26.6 °F 93% 30.60 in 4.0 mi West 6.9 mph - N/A Snow Light Snow
12:55 AM 28.4 °F 20.4 °F 26.6 °F 93% 30.60 in 3.0 mi West 8.1 mph - N/A Snow Light Snow
1:14 AM 28.4 °F 21.2 °F 26.6 °F 93% 30.60 in 3.0 mi West 6.9 mph - N/A Snow Light Snow
1:35 AM 28.4 °F 19.7 °F 26.6 °F 93% 30.60 in 3.0 mi West 9.2 mph - N/A Snow Light Snow
1:55 AM 28.4 °F 20.4 °F 26.6 °F 93% 30.60 in 4.0 mi West 8.1 mph - N/A Snow Light Snow
2:15 AM 28.4 °F 20.4 °F 26.6 °F 93% 30.60 in 4.0 mi West 8.1 mph - N/A Snow Light Snow
2:35 AM 28.4 °F 20.4 °F 26.6 °F 93% 30.60 in 5.0 mi West 8.1 mph - N/A Snow Light Snow
2:54 AM 28.4 °F 19.7 °F 26.6 °F 93% 30.60 in 7.0 mi West 9.2 mph - N/A Snow Light Snow
3:15 AM 26.6 °F 16.8 °F 26.6 °F 100% 30.60 in 7.0 mi West 10.4 mph - N/A Snow Light Snow
3:35 AM 28.4 °F 19.1 °F 26.6 °F 93% 30.60 in 5.0 mi West 10.4 mph - N/A Snow Light Snow
3:55 AM 28.4 °F 19.7 °F 26.6 °F 93% 30.60 in 5.0 mi West 9.2 mph - N/A Snow Light Snow
4:15 AM 26.6 °F 16.8 °F 24.8 °F 93% 30.60 in 7.0 mi West 10.4 mph - N/A Snow Light Snow
4:34 AM 26.6 °F 16.8 °F 24.8 °F 93% 30.61 in 7.0 mi WSW 10.4 mph - N/A   Scattered Clouds
4:51 AM 24.8 °F 14.6 °F 23.0 °F 93% 30.61 in 10.0 mi WSW 10.4 mph - N/A   Clear
5:15 AM 23.0 °F 11.7 °F 23.0 °F 100% 30.61 in 10.0 mi WSW 11.5 mph - N/A   Clear
5:35 AM 23.0 °F 13.1 °F 21.2 °F 93% 30.61 in 10.0 mi WSW 9.2 mph - N/A   Clear
5:55 AM 24.8 °F 14.6 °F 23.0 °F 93% 30.62 in 10.0 mi SW 10.4 mph - N/A   Clear
6:14 AM 24.8 °F 16.9 °F 21.2 °F 86% 30.63 in 10.0 mi WSW 6.9 mph - N/A   Scattered Clouds
6:35 AM 23.0 °F 13.9 °F 21.2 °F 93% 30.64 in 10.0 mi WSW 8.1 mph - N/A   Overcast
6:51 AM 23.0 °F 13.9 °F 21.2 °F 93% 30.65 in 10.0 mi WSW 8.1 mph - N/A   Mostly Cloudy
8:58 AM 30.2 °F 25.4 °F 24.8 °F 80% 30.66 in 40.0 mi WSW 4.6 mph - N/A   Partly Cloudy
9:53 AM 32.0 °F 27.5 °F 24.8 °F 75% 30.66 in 40.0 mi West 4.6 mph - N/A   Partly Cloudy
10:47 AM 35.6 °F 31.7 °F 24.8 °F 65% 30.66 in 40.0 mi SW 4.6 mph - N/A   Scattered Clouds
11:50 AM 37.4 °F 33.8 °F 23.0 °F 56% 30.64 in 40.0 mi WSW 4.6 mph - N/A   Scattered Clouds
12:55 PM 39.2 °F 35.9 °F 23.0 °F 52% 30.62 in 40.0 mi SW 4.6 mph - N/A   Mostly Cloudy
3:47 PM 46.4 °F 43.5 °F 21.2 °F 37% 30.53 in 40.0 mi North 5.8 mph - N/A   Scattered Clouds
9:15 PM 35.6 °F - 26.6 °F 70% 30.47 in 10.0 mi Calm Calm - N/A   Clear
9:36 PM 33.8 °F 30.8 °F 28.4 °F 81% 30.46 in 10.0 mi South 3.5 mph - N/A   Clear
9:54 PM 33.8 °F 29.6 °F 28.4 °F 81% 30.46 in 10.0 mi South 4.6 mph - N/A   Clear
10:14 PM 32.0 °F 27.5 °F 28.4 °F 87% 30.45 in 10.0 mi South 4.6 mph - N/A   Clear
10:35 PM 32.0 °F 25.6 °F 28.4 °F 87% 30.45 in 10.0 mi South 6.9 mph - N/A   Clear
10:55 PM 33.8 °F 28.6 °F 28.4 °F 81% 30.43 in 10.0 mi South 5.8 mph - N/A   Clear
11:15 PM 33.8 °F 28.6 °F 28.4 °F 81% 30.43 in 10.0 mi South 5.8 mph - N/A   Clear
11:35 PM 32.0 °F 26.4 °F 28.4 °F 87% 30.42 in 10.0 mi South 5.8 mph - N/A   Clear
11:55 PM 32.0 °F 25.6 °F 28.4 °F 87% 30.41 in 10.0 mi South 6.9 mph - N/A   Clear